User: anonymous   Login
Location: ??????
(42.0089°N, 44.3281°E)
Time: 16:09:55
(UTC+00:00)
Language:

Okean O Rocket - Orbit

View from above orbital plane
View from above orbital plane
View from above satellite
View from above satellite

Ground track
Ground track

The orbit data is extracted from the following two-line orbital elements,

1 25861U 99039B   22022.05436299  .00000149  00000-0  27717-4 0  9990
2 25861  98.1927  46.5258 0016918  84.0737 300.4150 14.78707444214000
Epoch (UTC): 22 January 2022 01:18:16
Eccentricity: 0.0016918
inclination: 98.1927°
perigee height: 621 km
apogee height: 645 km
right ascension of ascending node: 46.5258°
argument of perigee: 84.0737°
revolutions per day: 14.78707444
mean anomaly at epoch: 300.4150°
orbit number at epoch: 21400

The dashed part of the orbit path shows where the satellite is in the earth's shadow,  

DLR